KBOS

General Edward Lawrence Logan International Airport

ICAO Code KBOS
IATA Code BOS
Name General Edward Lawrence Logan International Airport
Location Boston, Massachusetts, US
Elevation 20 Feet / 6.1 Meters
Latitude 42.36429977
Longitude -71.00520325
METAR KBOS 130354Z 28009KT 10SM CLR 21/14 A2997 RMK AO2 SLP150 T02060139 $
Extra information Display Charts
Runway Length Width Surface Elevation
04L 7861 ft 150 ft ASP 14 ft
04R 10005 ft 150 ft ASP 18 ft
09 7000 ft 150 ft ASP 17 ft
14 5000 ft 100 ft ASPH-G 17 ft
15L 2557 ft 100 ft ASP 15 ft
15R 10083 ft 150 ft ASP 17 ft
22R 7861 ft 150 ft ASP 15 ft
22L 10005 ft 150 ft ASP 16 ft
27 7000 ft 150 ft ASP 15 ft
32 5000 ft 100 ft ASPH-G 20 ft
33R 2557 ft 100 ft ASP 14 ft
33L 10083 ft 150 ft ASP 15 ft